Wind_Speed
4 4 3 3 4 3 3 3 3 3 2 3 4 5 5 5 5 6 7 7 7 7 7 6 6 6 6 6 6 6 6 6 6 6 6 7 7 7 7 7 7 6 6
5 5 4 4 5 4 4 4 4 4 3 3 5 5 5 6 7 7 8 8 8 8 8 7 8 8 7 7 7 7 7 6 7 7 8 8 8 8 8 7 7 6 6
5 5 5 5 5 5 5 4 4 3 4 4 5 6 5 5 6 6 8 9 9 9 8 8 9 9 9 8 8 8 8 8 8 8 8 9 9 9 9 9 8 8 7
7 6 6 6 6 5 5 5 5 4 4 5 5 5 5 5 6 7 8 8 9 9 9 9 9 9 10 10 10 10 9 9 9 9 10 10 11 10 10 10 10 10 9
7 7 7 6 6 6 6 6 6 5 5 5 5 5 5 6 7 7 8 8 9 10 10 10 10 10 10 11 11 11 10 10 11 10 11 11 12 11 11 11 11 11 11
7 7 7 7 7 6 6 6 6 6 6 6 6 6 6 7 7 7 8 8 8 9 9 10 10 10 11 11 11 11 11 11 11 11 11 11 12 12 12 12 12 12 11
7 7 7 7 6 7 7 6 7 7 7 7 6 7 7 7 7 8 8 8 9 9 10 10 10 10 10 11 11 11 11 10 10 11 11 12 12 12 12 13 13 13 12
7 6 6 6 6 6 6 6 6 7 7 7 7 7 8 8 8 9 8 8 8 9 9 9 10 9 9 10 11 11 11 11 11 11 11 12 12 12 13 13 14 14 13
5 5 6 6 6 6 5 6 5 6 6 6 7 7 8 9 10 10 9 9 9 9 9 10 10 10 10 10 11 11 12 12 12 11 12 12 13 13 13 13 14 14 14
3 4 4 4 5 5 5 5 5 5 5 6 6 7 8 8 8 9 9 9 9 9 10 10 10 10 10 11 11 11 11 12 13 13 12 13 13 14 14 14 15 15 15
3 3 4 3 3 4 4 4 5 5 5 6 6 6 6 6 6 6 7 8 9 10 10 10 11 11 11 11 12 12 12 12 13 13 13 13 13 13 14 14 14 15 15
2 3 3 3 3 4 4 4 5 5 5 5 5 5 5 5 5 6 7 8 9 9 10 10 11 11 11 11 12 13 13 13 13 14 13 13 13 14 14 14 14 14 14
3 3 3 3 4 4 4 5 5 6 6 6 5 5 5 5 5 6 7 7 8 8 9 10 9 10 10 11 13 13 13 13 14 14 14 14 13 13 12 13 14 14 14
3 3 3 3 4 4 4 4 5 5 5 5 5 5 5 5 6 6 7 7 7 8 8 9 9 10 10 11 12 12 13 13 13 13 13 13 13 13 13 13 13 14 14
3 3 3 3 4 4 4 4 4 5 5 5 5 5 5 5 6 6 6 7 7 7 8 9 9 10 10 11 11 11 12 12 13 13 13 14 13 14 14 14 14 14 14
5 5 5 4 4 5 5 5 5 5 5 5 5 4 5 5 5 6 7 7 7 8 9 9 9 10 10 11 11 12 12 12 13 14 14 14 14 15 16 16 15 15 15
6 6 6 6 6 6 5 6 6 6 6 5 5 5 5 5 6 6 7 8 8 8 8 9 9 9 9 10 11 12 13 12 12 13 14 15 15 15 16 16 16 16 16
7 7 6 6 6 6 6 6 6 6 6 6 6 6 5 6 7 8 8 8 8 8 8 8 8 9 9 10 10 11 11 11 12 13 14 14 14 15 16 17 17 17 17
7 7 7 7 7 7 7 7 7 7 7 6 6 7 8 7 7 8 8 9 9 9 8 8 8 9 9 10 10 11 11 11 12 12 13 14 14 15 16 17 16 16 16
7 7 7 7 7 8 8 7 7 7 7 7 7 8 9 10 9 8 9 9 9 9 10 9 9 9 9 10 10 11 12 12 13 13 13 13 14 14 15 15 16 16 16
7 7 7 7 7 7 7 7 8 8 8 8 8 9 9 10 10 10 9 9 10 10 10 10 10 10 10 10 11 11 12 12 12 12 13 13 14 14 15 15 16 16 16
8 8 8 8 8 8 8 8 8 9 9 9 9 10 10 10 11 11 11 11 11 11 11 11 11 11 11 11 11 11 12 12 12 12 13 13 13 13 14 15 15 16 15
8 8 9 9 10 10 10 9 9 10 10 10 10 10 11 11 11 12 12 12 12 12 12 12 12 12 12 12 12 12 12 12 12 12 13 13 13 14 14 14 15 15 16
9 9 10 10 10 10 10 11 11 11 11 11 11 11 11 12 12 13 13 13 13 13 13 13 13 12 12 12 12 12 12 13 12 13 13 13 13 14 15 15 15 16 16
10 10 10 10 10 11 12 12 12 12 12 12 12 12 12 13 13 13 13 13 13 14 14 14 14 13 13 13 13 13 13 13 13 14 14 14 14 15 15 16 15 16 16
11 10 10 11 11 11 12 12 12 12 12 13 13 13 13 13 13 14 14 14 14 14 14 14 14 14 13 13 13 13 13 13 13 14 14 14 15 16 16 16 16 16 16
Wind_Direction
272 280 293 301 308 309 310 313 314 308 304 270 255 250 247 240 237 239 235 232 230 233 235 235 233 232 231 235 239 239 235 230 229 225 216 214 216 215 214 213 216 222 222
275 278 281 287 294 298 297 296 303 303 295 281 268 259 252 246 245 242 233 233 238 239 238 236 232 234 236 240 244 243 240 240 234 234 227 222 223 220 221 219 222 227 223
273 273 274 278 281 284 282 284 290 293 290 278 271 262 254 251 247 241 233 235 239 239 239 239 240 238 238 242 246 247 244 242 238 233 228 226 226 229 229 227 230 235 234
270 270 274 274 273 273 273 274 278 280 281 282 271 264 259 250 243 239 235 236 239 239 242 247 248 243 243 245 248 248 244 243 239 234 232 232 231 235 234 235 238 240 239
268 266 270 271 272 270 268 267 270 271 273 281 279 268 261 256 248 243 240 241 245 243 243 248 250 249 248 250 250 248 245 244 242 240 237 236 234 236 234 239 242 242 240
269 266 265 266 266 265 266 266 265 265 268 274 278 275 268 267 261 253 247 247 249 247 246 249 250 252 249 249 249 251 250 246 243 242 240 238 239 240 239 241 244 244 244
269 269 263 268 265 263 263 265 265 266 269 271 275 274 271 269 262 253 251 251 251 254 258 257 256 257 252 251 251 249 249 250 247 244 244 244 243 244 244 244 244 245 247
270 270 271 271 268 267 263 264 264 265 267 270 271 273 273 269 261 259 258 258 261 264 264 263 261 262 259 255 252 252 251 249 250 248 247 245 244 245 246 245 246 248 252
267 268 274 273 272 270 265 261 261 261 260 264 270 275 277 275 268 263 260 260 261 263 264 264 261 259 258 256 254 254 251 250 251 251 249 248 247 246 246 247 247 250 252
271 270 275 276 271 268 264 265 267 265 262 266 274 282 285 284 277 265 262 264 265 265 264 263 260 257 257 254 254 255 254 252 252 251 251 251 250 249 247 246 248 251 250
276 278 280 276 276 275 272 271 275 279 282 282 288 297 303 301 293 276 269 268 269 270 268 265 262 259 258 257 256 256 256 255 252 251 248 248 247 247 249 252 251 250 250
270 275 280 275 276 283 286 290 286 286 285 287 290 295 304 306 295 285 282 278 274 272 272 272 268 265 263 261 259 258 257 256 252 250 248 246 246 247 250 250 250 248 249
279 271 271 273 280 288 289 289 290 288 286 283 282 288 298 300 300 297 293 288 281 275 273 272 271 268 265 263 262 259 257 255 252 249 247 245 245 246 249 249 248 247 248
274 272 267 265 271 281 284 284 286 287 288 283 286 288 293 300 301 300 297 292 286 278 277 274 273 267 264 263 261 259 257 250 247 246 246 246 245 245 246 248 248 247 247
273 269 268 266 273 280 280 282 285 286 289 287 284 287 296 302 305 305 302 298 293 287 283 281 275 270 265 263 259 256 254 251 246 244 243 244 247 247 245 247 248 249 249
271 271 269 267 274 279 282 282 287 289 288 284 277 279 285 293 298 303 305 301 296 293 291 289 282 277 273 269 262 257 253 250 249 248 246 246 246 246 246 246 248 249 251
270 266 267 268 275 283 285 281 281 282 284 279 279 283 279 288 293 297 302 302 299 298 296 290 283 279 275 271 265 263 256 250 250 250 248 246 246 247 248 249 250 253 255
273 271 270 271 276 280 280 282 279 279 280 280 281 287 285 287 288 292 296 298 296 298 297 292 286 280 278 272 269 268 258 250 251 252 250 248 249 250 251 252 252 253 253
276 274 272 272 274 275 274 276 278 278 277 279 282 287 289 295 293 293 295 296 294 293 294 292 288 285 281 275 271 267 263 258 256 256 252 249 249 250 251 251 251 253 253
276 276 276 275 275 275 276 276 276 277 274 276 282 286 289 292 293 293 293 292 293 294 294 292 289 287 284 279 274 269 266 265 263 262 258 254 253 253 255 255 253 254 256
274 275 277 277 277 278 276 276 273 272 273 276 281 286 290 291 292 296 294 292 294 294 292 291 290 287 283 280 276 273 269 267 264 260 260 260 258 257 259 258 256 255 257
272 273 273 274 272 273 274 272 273 272 272 275 279 282 287 290 293 296 296 295 293 293 291 289 288 287 283 280 277 276 272 268 264 258 258 258 259 256 257 257 258 259 260
273 273 275 272 271 272 274 275 276 276 274 275 279 282 287 290 293 295 297 296 294 292 290 289 286 285 281 277 274 274 272 270 267 262 259 259 260 257 255 257 258 259 259
278 273 274 272 271 273 273 274 278 278 277 278 279 281 284 287 290 292 293 295 295 293 290 290 288 288 284 280 277 274 272 269 268 266 263 262 263 262 258 256 258 259 258
283 275 276 276 273 274 275 275 275 277 279 280 281 282 284 288 290 291 292 293 293 294 293 290 289 289 287 283 280 276 275 273 270 268 264 262 262 261 260 259 259 261 259
278 276 280 278 276 276 277 275 274 275 277 280 282 282 284 286 287 289 291 291 291 292 292 291 291 289 286 283 281 279 276 274 272 270 268 266 264 262 262 263 264 266 265
Height
5865 5865 5865 5865 5865 5865 5864 5864 5864 5863 5863 5863 5863 5863 5863 5863 5863 5863 5863 5864 5865 5866 5866 5867 5867 5867 5868 5868 5868 5868 5868 5868 5868 5869 5869 5870 5870 5871 5871 5872 5872 5872 5872
5864 5864 5864 5864 5864 5864 5864 5863 5863 5863 5863 5862 5862 5862 5862 5862 5861 5861 5861 5863 5864 5864 5865 5866 5866 5866 5867 5867 5867 5867 5867 5867 5868 5868 5868 5869 5870 5870 5871 5871 5871 5871 5872
5863 5863 5863 5863 5863 5863 5863 5863 5863 5862 5862 5862 5861 5861 5861 5861 5861 5860 5861 5862 5862 5863 5863 5864 5864 5865 5865 5865 5866 5866 5866 5866 5866 5867 5868 5868 5869 5869 5869 5870 5870 5871 5871
5862 5862 5862 5862 5862 5862 5862 5862 5862 5862 5861 5861 5861 5860 5860 5860 5860 5860 5860 5861 5861 5861 5862 5862 5863 5863 5864 5864 5864 5864 5865 5865 5865 5866 5866 5867 5867 5868 5868 5869 5869 5870 5870
5860 5860 5861 5861 5861 5861 5861 5861 5861 5861 5860 5860 5860 5859 5859 5859 5859 5859 5859 5860 5860 5860 5860 5861 5861 5861 5862 5862 5863 5863 5863 5863 5864 5864 5865 5865 5866 5867 5867 5868 5868 5868 5868
5858 5859 5859 5859 5859 5859 5859 5859 5859 5859 5859 5859 5858 5858 5857 5857 5857 5857 5858 5858 5858 5858 5859 5859 5859 5860 5860 5860 5861 5861 5861 5862 5862 5863 5863 5864 5864 5865 5865 5866 5866 5866 5867
5857 5857 5857 5857 5857 5858 5858 5858 5858 5857 5857 5857 5857 5856 5856 5855 5855 5856 5856 5856 5856 5857 5857 5857 5858 5858 5858 5858 5859 5859 5859 5860 5860 5861 5861 5862 5862 5863 5863 5864 5864 5864 5865
5855 5855 5855 5856 5856 5856 5856 5856 5856 5856 5856 5855 5855 5855 5854 5853 5853 5853 5854 5854 5855 5855 5855 5855 5856 5856 5856 5856 5857 5857 5857 5858 5858 5859 5859 5860 5860 5860 5861 5861 5861 5862 5862
5853 5854 5854 5854 5855 5855 5855 5855 5855 5854 5854 5854 5853 5853 5852 5850 5849 5850 5851 5852 5853 5853 5853 5853 5853 5854 5854 5854 5854 5854 5855 5855 5856 5856 5857 5857 5858 5858 5858 5858 5859 5859 5860
5852 5852 5853 5853 5853 5853 5853 5853 5853 5853 5853 5852 5852 5851 5849 5847 5845 5846 5848 5850 5850 5851 5851 5851 5851 5851 5851 5851 5852 5852 5852 5853 5853 5854 5854 5854 5855 5855 5856 5856 5857 5857 5857
5851 5851 5851 5852 5852 5852 5852 5852 5852 5852 5851 5851 5850 5849 5848 5845 5843 5844 5846 5847 5848 5848 5848 5848 5848 5848 5849 5849 5849 5849 5850 5850 5851 5851 5851 5852 5852 5853 5853 5854 5854 5854 5855
5850 5850 5850 5850 5851 5851 5851 5851 5850 5850 5850 5850 5849 5848 5847 5845 5844 5844 5845 5845 5846 5846 5846 5846 5845 5846 5846 5846 5846 5847 5847 5847 5848 5848 5848 5849 5849 5850 5851 5851 5851 5852 5852
5849 5849 5849 5849 5849 5850 5850 5849 5849 5849 5849 5848 5848 5847 5846 5845 5844 5844 5844 5844 5844 5844 5843 5843 5843 5843 5843 5843 5843 5843 5844 5844 5845 5845 5846 5846 5847 5847 5847 5848 5848 5849 5849
5848 5848 5848 5848 5848 5848 5848 5848 5848 5847 5847 5847 5846 5846 5845 5844 5844 5843 5843 5842 5842 5842 5841 5841 5841 5841 5841 5840 5840 5840 5841 5841 5842 5842 5842 5843 5844 5844 5845 5845 5845 5846 5846
5847 5847 5847 5847 5847 5846 5846 5846 5846 5846 5846 5845 5845 5844 5844 5844 5843 5842 5841 5841 5840 5840 5839 5839 5838 5838 5838 5838 5837 5837 5838 5838 5839 5839 5839 5840 5841 5841 5842 5842 5843 5843 5843
5845 5845 5845 5845 5845 5845 5845 5845 5844 5844 5844 5844 5843 5843 5842 5842 5842 5841 5840 5839 5839 5838 5837 5836 5836 5835 5835 5835 5835 5835 5835 5835 5835 5836 5836 5837 5837 5838 5838 5839 5839 5840 5840
5843 5843 5843 5843 5843 5843 5843 5843 5842 5842 5842 5842 5841 5841 5841 5840 5840 5839 5839 5838 5837 5836 5835 5834 5833 5833 5833 5832 5832 5832 5832 5832 5832 5833 5833 5834 5834 5834 5835 5835 5836 5836 5836
5841 5841 5841 5841 5841 5841 5841 5841 5841 5840 5840 5840 5839 5839 5838 5838 5838 5837 5837 5836 5835 5834 5833 5832 5831 5831 5830 5830 5829 5829 5829 5829 5829 5830 5830 5830 5830 5831 5831 5832 5832 5833 5833
5839 5839 5839 5839 5839 5839 5839 5839 5838 5838 5838 5838 5837 5837 5837 5836 5836 5835 5834 5833 5832 5832 5831 5830 5829 5829 5828 5827 5827 5827 5827 5826 5826 5827 5827 5827 5827 5828 5828 5828 5829 5829 5829
5837 5837 5837 5837 5837 5836 5836 5836 5836 5836 5836 5836 5835 5835 5834 5834 5833 5832 5832 5831 5830 5829 5828 5827 5827 5826 5826 5825 5824 5824 5824 5824 5823 5823 5824 5824 5824 5824 5825 5825 5825 5825 5825
5835 5834 5834 5834 5834 5834 5834 5834 5834 5834 5833 5833 5833 5832 5832 5831 5830 5829 5829 5828 5827 5826 5825 5825 5824 5823 5823 5822 5822 5821 5821 5821 5820 5820 5821 5821 5821 5821 5821 5822 5822 5822 5822
5832 5832 5832 5832 5832 5832 5832 5831 5831 5831 5831 5830 5830 5830 5829 5828 5827 5827 5826 5825 5824 5823 5822 5822 5821 5820 5820 5819 5819 5818 5818 5818 5818 5817 5817 5817 5817 5818 5818 5818 5818 5819 5819
5829 5829 5829 5829 5829 5829 5829 5828 5828 5828 5828 5827 5827 5827 5826 5825 5825 5824 5823 5822 5821 5820 5819 5819 5818 5817 5816 5816 5815 5815 5815 5814 5814 5814 5814 5814 5814 5814 5814 5814 5814 5815 5815
5826 5826 5826 5826 5826 5826 5826 5825 5825 5825 5824 5824 5824 5823 5823 5822 5821 5821 5820 5819 5818 5817 5816 5815 5814 5814 5813 5812 5812 5811 5811 5811 5811 5811 5811 5811 5811 5811 5811 5811 5811 5811 5811
5823 5823 5823 5823 5823 5823 5822 5822 5822 5821 5821 5821 5820 5820 5819 5819 5818 5817 5816 5815 5814 5813 5812 5812 5811 5810 5809 5808 5808 5807 5807 5807 5807 5807 5807 5807 5807 5807 5807 5807 5807 5807 5807
5820 5819 5820 5820 5819 5819 5819 5819 5818 5818 5817 5817 5816 5816 5815 5815 5814 5813 5812 5811 5811 5810 5809 5808 5807 5806 5805 5804 5804 5803 5803 5803 5803 5803 5803 5803 5803 5803 5802 5802 5802 5802 5802